Погода в Новолеушковской

Россия / Краснодарский край     46°00′00″N   39°59′15″E
темп.,
°C
ветер,
м/с
пор.,
м/с
влажн.,
%
обл.,
%
осадки,
мм/ч
давл.,
гПа
погр.,
м
18 апреля, вс
вс1800:00+9ю1287100 0.0 102194
03:00+9всв2385100 0.0 1020120
06:00+9всв3789100 0.3 1019304
09:00+8св4896100 3.0 1018379
12:00+10всв4692100 3.1 1018531
15:00+10в3395100 5.4 1017297
18:00+10ссв2297100 0.9 101754
21:00+10св229885 1.0 101746
19 апреля, пн
пн1900:00+10св1197100 0.1 101629
03:00+10всв1197100 0.3 101613
06:00+10с2397100 0.3 1016104
09:00+10всв1298100 2.3 101688
12:00+11вюв1296100 0.6 1016203
15:00+12ссв1198100 5.5 101557
18:00+12сз0197100 1.6 101531
21:00+11в2297100 1.8 101436
20 апреля, вт
вт2000:00+11всв3599100 1.3 1012143
03:00+12всв4799100 7.3 1009191
06:00+13всв51496100 0.4 1005377
09:00+16юв7118195 0.4 1003462
12:00+21юз51067100 0.0 10031296
15:00+20зюз796888 0.1 10041436
18:00+15юз71371100 0.0 1006756
21:00+13ююз81663100 0.0 1009928
21 апреля, ср
ср2100:00+11юз10187721 0.0 10101102
03:00+10юз10167594 0.0 10121223
06:00+10юз81383100 0.0 1015920
09:00+12зюз7107861 0.1 1017956
12:00+13зюз587297 0.3 10181207
15:00+15зюз686099 0.5 10191682
18:00+14з36695 0.2 1020300
21:00+9зсз22770 0.2 102212
22 апреля, чт
чт2200:00+8зсз11750 0.0 102210
03:00+7сз11744 0.0 102210
06:00+7св117498 0.0 102310
09:00+12всв2261100 0.0 1023347
12:00+16всв1153100 0.0 10231196
15:00+17в114969 0.0 10211784
18:00+15ю3369100 0.6 102169
21:00+11ююв1180100 1.0 102212